Location: Carbonear
(47.7333°N, 53.2500°W)
Time: 10:17:53
(UTC+00:00)

CUTE-I - Visible Passes

Search period start: 30 November 2022 00:00
Search period end: 10 December 2022 00:00
Orbit: 810 x 823 km, 98.7° (Epoch: 29 November)

Date Brightness Start Highest point End Pass type
(mag) Time Alt. Az. Time Alt. Az. Time Alt. Az.
30 Nov ? 09:05:01 10° NE 09:09:38 28° E 09:14:13 10° SSE visible
30 Nov ? 20:29:45 10° SSE 20:34:58 62° ENE 20:40:15 10° N visible
30 Nov ? 22:11:29 10° SW 22:15:26 21° W 22:19:23 10° NW visible
01 Dec ? 08:43:54 10° NE 08:47:38 19° E 08:51:22 10° SE visible
01 Dec ? 10:22:49 10° N 10:28:10 69° WNW 10:33:30 10° SSW visible
01 Dec ? 20:08:22 10° SE 20:13:19 42° ENE 20:18:20 10° N visible
01 Dec ? 21:48:47 10° SSW 21:53:27 31° W 21:58:11 10° NNW visible
02 Dec ? 08:23:29 10° ENE 08:25:34 12° E 08:27:39 10° ESE visible
02 Dec ? 10:01:01 10° NNE 10:06:26 81° ESE 10:11:49 10° SSW visible
02 Dec ? 21:26:27 10° S 21:31:33 47° W 21:36:42 10° NNW visible
03 Dec ? 09:39:21 10° NNE 09:44:38 54° E 09:49:53 10° S visible
03 Dec ? 21:04:25 10° S 21:09:43 71° WSW 21:15:05 10° NNW visible
03 Dec ? 22:50:21 10° W 22:50:42 10° W 22:51:04 10° W visible
04 Dec ? 09:17:49 10° NNE 09:22:45 36° E 09:27:40 10° SSE visible
04 Dec ? 20:42:39 10° SSE 20:47:58 79° ENE 20:53:20 10° NNW visible
04 Dec ? 22:25:22 10° SW 22:28:36 16° W 22:31:53 10° NW visible
05 Dec ? 08:56:30 10° NE 09:00:49 24° E 09:05:06 10° SE visible
05 Dec ? 20:21:07 10° SE 20:26:16 53° ENE 20:31:28 10° N visible
05 Dec ? 22:02:19 10° SSW 22:06:36 24° W 22:10:55 10° NW visible
06 Dec ? 08:35:33 10° NE 08:38:48 16° E 08:42:01 10° SE visible
06 Dec ? 10:14:03 10° NNE 10:19:27 81° WNW 10:24:50 10° SSW visible
06 Dec ? 21:39:46 10° SSW 21:44:39 36° W 21:49:35 10° NNW visible
07 Dec ? 09:52:19 10° NNE 09:57:41 69° ESE 10:03:02 10° S visible
07 Dec ? 21:17:34 10° S 21:22:46 55° W 21:28:02 10° NNW visible
08 Dec ? 09:30:41 10° NNE 09:35:52 46° E 09:41:00 10° S visible
08 Dec ? 20:55:38 10° SSE 21:00:58 83° WSW 21:06:22 10° NNW visible
08 Dec ? 22:39:39 10° WSW 22:41:49 12° W 22:44:00 10° WNW visible
09 Dec ? 09:09:13 10° NNE 09:13:57 30° E 09:18:39 10° SSE visible
09 Dec ? 20:33:58 10° SSE 20:39:14 67° ENE 20:44:34 10° N visible
09 Dec ? 22:16:00 10° SW 22:19:45 19° W 22:23:32 10° NW visible
